THOR ABLESTAR DEB, 543

Orbit data source: Space-Track

THOR ABLESTAR DEB, 543 is space debris in LEO originally from a launch on Thu, 29 Jun 1961 UTC launched from the Air Force Eastern Test Range (AFETR). Debris objects in space refer to the collection of defunct objects orbiting the Earth. Examples of debris include non-operational satellites, rocket bodies, and fragments generated from explosions, collisions, or faulty payload assembly.

Loading next visibility...
Identifier
543, 1961-015GC
Orbit
LEO
Country
Flag of USUS
Related business
Manufacturer
Unknown
Mission
Spacecraft
Bus & Motor
Unknown
Mass
Unknown
Launch date (UTC)
1961-06-29 (64 years ago)
Launch vehicle
Unknown
Launch site
Air Force Eastern Test Range (AFETR)
Object type
Payload
Rocket body
Debris
Shape & HBR
Unknown shape, 0.1 m
Radar Cross Section
Small (<0.1 m²)

Expand to show TLE details & history
Last TLE update: 1 day ago

TLE from 1 day ago
0 THOR ABLESTAR DEB
1 00543U 61015GC  25307.51791882  .00000184  00000-0  28968-3 0  9992
2 00543  67.0296 110.5995 0067706 358.7809  66.4028 13.69128421205808
Epoch: 2025-11-03T12:25Z
TLE epoch observation values (Epoch: 2025-11-03T12:25:48.186Z)
Latitude
57.3015°
Longitude
-77.80951°
Altitude
991.777 km
Speed
7.371 km/s
True Right ascension
10h 06m 38s
True Declination
57° 08' 60"
Sunlit
Object was in daylight at epoch
Visualization orbit readout
Latitude
Unknown
Longitude
Unknown
Altitude
Unknown
Speed
Unknown
Apparent Right ascension
Unknown
Apparent Declination
Unknown
Sunlit
N/A
Visualization observer readout
Local Sidereal Time
11:21:20
Azimuth
Unknown
Elevation
Unknown
Doppler factor
Unknown
Orbital elements
Apogee altitude
1,051.048 km
Perigee altitude
951.124 km
Semi-major axis
7,379.223 km
Eccentricity
0.00677
Inclination
67.0296°
RAAN
110.5995°
Arg. of periapsis
358.7809°
True anomaly
67.11618°
Mean anomaly
66.4028°
Eccentric anomaly
66.75925°
Mean motion
3.42395 °/min
Orbital period
105.14 mins
BSTAR
0.00028968
Loading maneuver chart data...
Computing Atmospheric mass density...

Documentation

Showing up to 5 results
|